This is the latest recevied weather packets stored in our database for station/object K42C. If no packets are shown the sender has not sent any weather packets the latest 10 day(s).
| Time | Temp. | Humidity | Pressure | Rain* | Wind** | Luminosity | Snow |
|---|---|---|---|---|---|---|---|
| 1777477914 | 6.11° C | 100% | 977.5 hPa | 0 mm | 0 m/s | - | - |
| 1777477517 | 6.11° C | 100% | 977.5 hPa | 0 mm | 0 m/s | - | - |
| 1777476320 | 6.11° C | 100% | 977.5 hPa | 0 mm | 0 m/s | - | - |
| 1777473528 | 6.67° C | 100% | 977.3 hPa | 0 mm | 0 m/s | - | - |
| 1777473128 | 6.67° C | 100% | 977.2 hPa | 0 mm | 0 m/s | - | - |
| 1777472730 | 6.67° C | 100% | 977.3 hPa | 0 mm | 0 m/s | - | - |
| 1777472330 | 6.67° C | 100% | 977.3 hPa | 0 mm | 0 m/s | - | - |
| 1777471933 | 6.67° C | 100% | 977.2 hPa | 0 mm | 0 m/s | - | - |
| 1777471135 | 6.67° C | 100% | 977.3 hPa | 0 mm | 0 m/s | - | - |
| 1777469138 | 6.11° C | 100% | 977.4 hPa | 0 mm | 0 m/s | - | - |
| 1777468741 | 6.11° C | 100% | 977.5 hPa | 0 mm | 0 m/s | - | - |
| 1777468341 | 6.11° C | 100% | 977.5 hPa | 0 mm | 0 m/s | - | - |
| 1777467543 | 6.11° C | 100% | 977.6 hPa | 0 mm | 0 m/s | - | - |
| 1777462755 | 5.56° C | 100% | 977.6 hPa | 0 mm | 0 m/s | - | - |
| 1777460762 | 5.56° C | 100% | 977.4 hPa | 0 mm | 0 m/s | - | - |
| 1777459964 | 5.56° C | 100% | 977.3 hPa | 0.25 mm | 0 m/s | - | - |
| 1777459564 | 6.11° C | 100% | 977.2 hPa | 0.25 mm | 0 m/s | - | - |
| 1777459166 | 6.11° C | 100% | 977.4 hPa | 0.25 mm | 0 m/s | - | - |
| 1777458766 | 6.11° C | 100% | 977.2 hPa | 0.25 mm | 0 m/s | - | - |
| 1777458369 | 6.11° C | 100% | 977.3 hPa | 0.25 mm | 0 m/s | - | - |
| 1777457968 | 6.11° C | 100% | 977.2 hPa | 0.25 mm | 0 m/s | - | - |
| 1777457571 | 6.67° C | 100% | 977.2 hPa | 0.25 mm | 0 m/s | - | - |
| 1777457170 | 6.67° C | 100% | 977.2 hPa | 0.25 mm | 0 m/s | - | - |
| 1777456773 | 6.67° C | 100% | 977.1 hPa | 0 mm | 0 m/s | - | - |
| 1777456372 | 7.22° C | 99% | 977.2 hPa | 0 mm | 0 m/s | - | - |
* Rain latest hour (hover to see other rain measurements)
** Current wind speed in m/s (hover to see current wind gust speed)